| time (UTC) | temp C | wind direction | speed KPH | gust KPH | rain 1hr cm | rain 24hr cm | rain mn cm | humidity % | barometer mb |
| 20260510151530 | 11 | 12 | 4.8 | 8.0 | 0.00 | 0.00 | 0.00 | 80 | 1014.2 |
| 20260510150028 | 10 | 85 | 1.6 | 6.4 | 0.00 | 0.00 | 0.00 | 80 | 1014.5 |
| 20260510144556 | 10 | 102 | 1.6 | 4.8 | 0.00 | 0.00 | 0.00 | 79 | 1014.1 |
| 20260510143106 | 10 | 166 | 3.2 | 6.4 | 0.00 | 0.00 | 0.00 | 77 | 1014.1 |
| 20260510141531 | 10 | 337 | 1.6 | 6.4 | 0.00 | 0.00 | 0.00 | 78 | 1013.9 |
| 20260510140030 | 9 | 37 | 0.0 | 4.8 | 0.00 | 0.00 | 0.00 | 79 | 1013.8 |
| 20260510134543 | 8 | 337 | 0.0 | 0.0 | 0.00 | 0.00 | 0.00 | 79 | 1014.1 |
| 20260510133102 | 8 | 337 | 0.0 | 3.2 | 0.00 | 0.00 | 0.00 | 80 | 1014.0 |
| 20260510130032 | 8 | 202 | 0.0 | 4.8 | 0.00 | 0.00 | 0.00 | 77 | 1013.9 |
| 20260510124530 | 8 | 138 | 0.0 | 6.4 | 0.00 | 0.00 | 0.00 | 77 | 1013.9 |
| 20260510123031 | 8 | 152 | 4.8 | 8.0 | 0.00 | 0.00 | 0.00 | 77 | 1014.1 |
| 20260510121607 | 8 | 237 | 0.0 | 4.8 | 0.00 | 0.00 | 0.00 | 76 | 1014.1 |
| 20260510120030 | 8 | 46 | 3.2 | 8.0 | 0.00 | 0.00 | 0.00 | 77 | 1013.9 |
| 20260510114530 | 7 | 34 | 4.8 | 6.4 | 0.00 | 0.00 | 0.00 | 76 | 1014.0 |
| 20260510113107 | 8 | 204 | 1.6 | 4.8 | 0.00 | 0.00 | 0.00 | 74 | 1013.9 |
| 20260510111605 | 9 | 152 | 0.0 | 3.2 | 0.00 | 0.00 | 0.00 | 73 | 1013.6 |
| 20260510110033 | 10 | 94 | 0.0 | 3.2 | 0.00 | 0.00 | 0.00 | 73 | 1013.5 |
| 20260510104531 | 10 | 67 | 1.6 | 3.2 | 0.00 | 0.00 | 0.00 | 73 | 1013.9 |
| 20260510103030 | 10 | 61 | 1.6 | 4.8 | 0.00 | 0.00 | 0.00 | 72 | 1014.0 |
| 20260510101529 | 9 | 325 | 0.0 | 3.2 | 0.00 | 0.00 | 0.00 | 71 | 1013.7 |
| 20260510100030 | 10 | 193 | 1.6 | 4.8 | 0.00 | 0.00 | 0.00 | 71 | 1013.7 |
| 20260510094531 | 10 | 126 | 0.0 | 3.2 | 0.00 | 0.00 | 0.00 | 69 | 1013.6 |
| 20260510093034 | 10 | 45 | 0.0 | 0.0 | 0.00 | 0.00 | 0.00 | 69 | 1013.6 |
| 20260510091529 | 10 | 51 | 3.2 | 6.4 | 0.00 | 0.00 | 0.00 | 68 | 1013.8 |
| 20260510090145 | 10 | 312 | 0.0 | 6.4 | 0.00 | 0.00 | 0.00 | 67 | 1013.8 |
| 20260510084530 | 11 | 7 | 3.2 | 6.4 | 0.00 | 0.00 | 0.00 | 66 | 1013.9 |
| 20260510083030 | 11 | 12 | 3.2 | 6.4 | 0.00 | 0.00 | 0.00 | 64 | 1014.0 |
| 20260510081607 | 11 | 67 | 1.6 | 4.8 | 0.00 | 0.00 | 0.00 | 65 | 1014.0 |
| 20260510080029 | 11 | 140 | 0.0 | 3.2 | 0.00 | 0.00 | 0.00 | 63 | 1014.1 |
| 20260510074531 | 12 | 136 | 0.0 | 3.2 | 0.00 | 0.00 | 0.00 | 60 | 1014.1 |
| 20260510073030 | 12 | 112 | 0.0 | 3.2 | 0.00 | 0.00 | 0.00 | 60 | 1014.1 |
| 20260510071531 | 12 | 138 | 1.6 | 6.4 | 0.00 | 0.00 | 0.00 | 62 | 1014.1 |
| 20260510064532 | 13 | 91 | 0.0 | 3.2 | 0.00 | 0.00 | 0.00 | 58 | 1014.0 |
| 20260510063036 | 14 | 88 | 1.6 | 4.8 | 0.00 | 0.00 | 0.00 | 58 | 1013.9 |
| 20260510061529 | 14 | 69 | 1.6 | 6.4 | 0.00 | 0.00 | 0.00 | 57 | 1013.9 |
| 20260510051530 | 16 | 202 | 0.0 | 3.2 | 0.00 | 0.00 | 0.00 | 52 | 1013.5 |
| 20260510050031 | 16 | 192 | 1.6 | 6.4 | 0.00 | 0.00 | 0.00 | 50 | 1013.4 |
| 20260510044529 | 17 | 185 | 1.6 | 6.4 | 0.00 | 0.00 | 0.00 | 49 | 1013.2 |
| 20260510041531 | 17 | 153 | 0.0 | 3.2 | 0.00 | 0.00 | 0.00 | 48 | 1013.0 |
| 20260510040030 | 18 | 155 | 3.2 | 6.4 | 0.00 | 0.00 | 0.00 | 49 | 1012.7 |
| 20260510033031 | 20 | 202 | 0.0 | 3.2 | 0.00 | 0.00 | 0.00 | 46 | 1012.5 |
| 20260510031529 | 20 | 182 | 0.0 | 3.2 | 0.00 | 0.00 | 0.00 | 44 | 1012.5 |
| 20260510030030 | 21 | 113 | 0.0 | 4.8 | 0.00 | 0.00 | 0.00 | 44 | 1012.5 |
| 20260510021530 | 22 | 117 | 1.6 | 6.4 | 0.00 | 0.00 | 0.00 | 39 | 1012.3 |
| 20260510020032 | 22 | 242 | 1.6 | 4.8 | 0.00 | 0.00 | 0.00 | 39 | 1012.4 |
| 20260510014532 | 23 | 201 | 1.6 | 4.8 | 0.00 | 0.00 | 0.00 | 38 | 1012.6 |
| 20260510011531 | 23 | 34 | 4.8 | 12.9 | 0.00 | 0.00 | 0.00 | 35 | 1012.7 |
| 20260510004530 | 25 | 38 | 6.4 | 12.9 | 0.00 | 0.00 | 0.00 | 33 | 1012.9 |
| 20260510003031 | 26 | 37 | 8.0 | 16.1 | 0.00 | 0.00 | 0.00 | 33 | 1012.9 |
| 20260510001531 | 25 | 46 | 6.4 | 17.7 | 0.00 | 0.00 | 0.00 | 33 | 1013.0 |
| 20260510000032 | 25 | 44 | 8.0 | 20.9 | 0.00 | 0.00 | 0.00 | 33 | 1013.1 |
| 20260509234530 | 26 | 31 | 9.7 | 17.7 | 0.00 | 0.00 | 0.00 | 33 | 1013.3 |
| 20260509233029 | 27 | 38 | 6.4 | 14.5 | 0.00 | 0.00 | 0.00 | 34 | 1013.6 |
| 20260509231532 | 27 | 25 | 9.7 | 16.1 | 0.00 | 0.00 | 0.00 | 34 | 1013.8 |
| 20260509230030 | 27 | 16 | 9.7 | 16.1 | 0.00 | 0.00 | 0.00 | 35 | 1014.1 |
| 20260509224532 | 27 | 17 | 6.4 | 17.7 | 0.00 | 0.00 | 0.00 | 36 | 1014.4 |
| 20260509223031 | 26 | 19 | 9.7 | 16.1 | 0.00 | 0.00 | 0.00 | 37 | 1014.6 |
| 20260509221646 | 26 | 20 | 11.3 | 19.3 | 0.00 | 0.00 | 0.00 | 38 | 1014.9 |
| 20260509220054 | 26 | 24 | 14.5 | 25.7 | 0.00 | 0.00 | 0.00 | 38 | 1015.0 |
| 20260509214532 | 25 | 27 | 14.5 | 22.5 | 0.00 | 0.00 | 0.00 | 40 | 1015.2 |
| 20260509213106 | 26 | 29 | 14.5 | 22.5 | 0.00 | 0.00 | 0.00 | 41 | 1015.4 |
| 20260509211530 | 26 | 9 | 11.3 | 19.3 | 0.00 | 0.00 | 0.00 | 41 | 1015.7 |
| 20260509210032 | 25 | 9 | 11.3 | 17.7 | 0.00 | 0.00 | 0.00 | 42 | 1015.8 |
| 20260509203031 | 25 | 18 | 12.9 | 20.9 | 0.00 | 0.00 | 0.00 | 44 | 1016.1 |
| 20260509200030 | 24 | 23 | 14.5 | 20.9 | 0.00 | 0.00 | 0.00 | 46 | 1016.7 |
| 20260509194529 | 23 | 4 | 9.7 | 19.3 | 0.00 | 0.00 | 0.00 | 48 | 1017.0 |
| 20260509193031 | 23 | 359 | 9.7 | 17.7 | 0.00 | 0.00 | 0.00 | 49 | 1017.2 |
| 20260509191607 | 22 | 354 | 9.7 | 20.9 | 0.00 | 0.00 | 0.00 | 50 | 1017.3 |
| 20260509190030 | 22 | 308 | 6.4 | 14.5 | 0.00 | 0.00 | 0.00 | 51 | 1017.5 |
| 20260509183031 | 21 | 297 | 4.8 | 11.3 | 0.00 | 0.00 | 0.00 | 52 | 1018.0 |
| 20260509181531 | 21 | 310 | 4.8 | 9.7 | 0.00 | 0.00 | 0.00 | 53 | 1018.1 |
| 20260509180029 | 20 | 260 | 3.2 | 9.7 | 0.00 | 0.00 | 0.00 | 53 | 1018.1 |
| 20260509174530 | 20 | 314 | 3.2 | 9.7 | 0.00 | 0.00 | 0.00 | 54 | 1018.2 |
| 20260509173030 | 18 | 294 | 3.2 | 8.0 | 0.00 | 0.00 | 0.00 | 56 | 1018.4 |
| 20260509170032 | 18 | 332 | 3.2 | 8.0 | 0.00 | 0.00 | 0.00 | 60 | 1018.9 |
| 20260509164532 | 17 | 312 | 1.6 | 4.8 | 0.00 | 0.00 | 0.00 | 61 | 1018.9 |
| 20260509163031 | 16 | 309 | 1.6 | 6.4 | 0.00 | 0.00 | 0.00 | 64 | 1019.1 |
| 20260509161531 | 15 | 329 | 3.2 | 8.0 | 0.00 | 0.00 | 0.00 | 66 | 1019.2 |
| 20260509154530 | 13 | 34 | 6.4 | 9.7 | 0.00 | 0.00 | 0.00 | 72 | 1019.5 |